Temperature
3 4 4 3 3 3 3 2 2 3 4 5 6 6 6 6 6 6 6 6 6 5 5 5 6 6 6 6 7 7 7 7 7 8 8 9 9 9 10 10 10 10 10 10
2 3 4 3 4 4 4 4 4 4 4 6 6 6 6 6 6 6 5 5 5 5 5 5 5 5 6 6 6 7 7 7 7 8 8 8 9 9 9 10 10 10 10 10
1 3 3 2 4 4 4 4 4 4 4 5 5 5 5 5 5 5 5 5 5 5 4 4 4 5 5 5 6 6 6 7 7 7 8 8 8 9 9 9 9 10 10 10
1 1 1 3 5 5 5 5 5 4 4 4 5 5 5 5 5 4 4 4 4 4 4 4 4 4 4 5 5 5 6 6 7 7 7 8 8 8 9 9 9 9 9 10
1 1 1 4 5 5 4 3 4 4 4 4 5 5 5 5 4 4 4 4 4 4 3 3 3 4 4 4 4 5 5 6 6 7 7 7 8 8 8 9 9 9 9 9
1 1 1 3 4 5 4 2 3 3 3 3 3 2 3 4 3 3 3 3 3 3 3 3 3 3 3 3 4 4 5 5 6 6 7 7 7 8 8 8 9 9 9 9
0 0 1 4 4 4 1 1 3 3 3 3 2 2 3 3 3 3 3 3 3 3 3 3 3 3 3 3 3 4 4 5 5 6 6 7 7 7 8 8 8 8 9 9
0 -0 1 3 3 2 2 3 3 3 3 2 2 2 2 2 2 2 2 2 2 2 2 2 2 2 2 3 3 3 4 5 5 5 6 6 6 7 7 8 8 8 8 8
1 2 3 4 3 3 3 3 3 2 2 2 1 1 1 1 1 1 1 1 1 1 2 2 2 2 2 2 2 3 3 4 5 5 5 6 6 7 7 7 7 8 8 8
1 2 3 4 3 3 3 2 2 2 1 1 1 1 0 1 1 1 1 1 1 1 1 1 1 1 2 2 2 2 3 3 4 5 5 6 6 6 6 7 7 7 8 8
1 1 2 3 3 2 2 2 1 1 1 0 0 -0 -0 -0 -0 -0 0 0 0 0 0 1 1 1 1 1 1 2 2 3 3 4 5 5 6 6 6 7 7 7 8 8
1 1 1 1 2 2 1 1 0 0 -0 -0 -1 -1 -1 -1 -1 -1 -1 -1 -0 -0 -0 -0 0 0 1 1 1 1 2 2 3 3 4 5 5 5 6 6 7 7 8 8
2 2 2 2 1 1 0 -0 -0 -1 -1 -1 -1 -2 -2 -2 -1 -1 -1 -1 -1 -1 -1 -1 -0 -0 0 0 0 1 1 2 2 3 4 4 4 5 5 6 6 6 7 7
1 1 1 0 0 -0 -1 -1 -1 -1 -2 -2 -2 -2 -2 -2 -2 -2 -2 -2 -2 -2 -1 -1 -1 -1 -0 -0 -0 0 1 1 2 2 3 4 4 4 5 5 6 6 6 7
0 -0 -1 -1 -1 -1 -2 -2 -2 -2 -3 -3 -3 -3 -3 -3 -3 -3 -3 -3 -3 -2 -2 -2 -1 -1 -1 -1 -0 0 1 1 2 2 3 3 4 4 4 5 5 5 5 6
-1 -1 -2 -2 -2 -2 -3 -3 -3 -3 -4 -4 -4 -4 -4 -4 -4 -4 -4 -3 -3 -3 -3 -2 -2 -2 -1 -1 -1 -0 0 1 1 2 2 3 3 4 4 4 4 5 5 5
-3 -3 -3 -3 -3 -3 -4 -4 -4 -4 -5 -5 -5 -5 -5 -5 -5 -5 -4 -4 -4 -4 -3 -3 -3 -2 -2 -1 -1 -0 0 1 1 2 2 2 3 3 4 4 4 4 5 5
-3 -4 -4 -4 -4 -5 -5 -5 -5 -5 -5 -5 -5 -6 -6 -6 -6 -5 -5 -5 -5 -4 -4 -3 -3 -2 -2 -1 -1 -0 0 0 1 1 2 2 3 3 3 4 4 4 4 5
-4 -5 -5 -5 -5 -5 -5 -6 -6 -6 -6 -6 -6 -6 -6 -6 -6 -6 -6 -5 -5 -5 -4 -3 -3 -3 -2 -2 -1 -1 -0 0 1 1 2 2 2 3 3 3 4 4 4 4
-5 -5 -5 -6 -6 -6 -6 -6 -6 -6 -6 -7 -7 -7 -6 -6 -6 -6 -6 -6 -5 -5 -5 -4 -3 -3 -2 -2 -1 -1 -1 -0 0 1 1 2 2 3 3 3 4 4 4 4
-6 -6 -6 -6 -6 -6 -6 -7 -7 -7 -7 -7 -7 -7 -7 -7 -7 -7 -6 -6 -5 -5 -5 -4 -4 -3 -2 -2 -2 -1 -1 -0 0 1 1 2 2 2 3 3 3 4 4 4
-7 -6 -6 -6 -6 -6 -7 -7 -7 -7 -7 -7 -7 -7 -7 -7 -7 -7 -6 -6 -6 -5 -5 -4 -4 -3 -3 -2 -2 -1 -1 -0 0 1 1 2 2 2 2 3 3 3 3 4
-7 -7 -7 -7 -7 -7 -7 -7 -7 -7 -7 -7 -7 -8 -8 -7 -7 -7 -7 -6 -6 -5 -5 -4 -4 -3 -3 -2 -2 -1 -1 -0 0 1 1 1 2 2 2 3 3 3 3 3
-7 -7 -7 -7 -7 -8 -8 -7 -7 -7 -7 -7 -7 -7 -7 -7 -7 -7 -7 -6 -6 -5 -5 -4 -4 -3 -3 -2 -2 -1 -1 -0 0 1 1 1 2 2 2 2 3 3 3 3
-8 -8 -8 -8 -8 -8 -8 -8 -8 -8 -8 -7 -7 -7 -7 -7 -7 -7 -6 -6 -5 -5 -4 -4 -4 -3 -3 -2 -2 -2 -1 -1 -0 0 0 1 1 2 2 2 3 3 3 3
-8 -8 -8 -8 -8 -9 -9 -9 -9 -9 -8 -8 -8 -7 -7 -7 -7 -7 -6 -6 -5 -5 -4 -4 -4 -3 -3 -2 -2 -2 -1 -1 -0 -0 0 0 1 2 2 2 2 3 3 3
-9 -9 -9 -9 -9 -9 -9 -9 -9 -9 -9 -9 -9 -8 -8 -7 -7 -7 -6 -6 -5 -5 -4 -4 -4 -3 -3 -3 -2 -2 -1 -1 -1 -0 0 1 1 1 2 2 2 2 2 2
Wind_Speed
17 18 16 16 17 14 15 15 16 19 22 21 15 12 11 10 9 9 8 7 6 5 5 6 7 7 6 5 4 3 4 5 6 6 5 5 6 8 10 11 12 12 13 13
15 16 17 21 21 20 19 18 20 22 23 18 14 11 10 10 9 9 9 8 7 6 6 6 7 7 7 6 6 4 4 5 4 4 5 5 6 7 9 10 11 12 12 13
11 11 12 15 16 18 16 15 15 17 17 13 11 10 9 9 8 8 8 8 8 7 6 6 7 6 7 7 7 5 5 5 4 4 4 5 5 6 8 9 10 11 12 13
7 6 12 10 6 8 12 12 10 10 10 9 11 9 8 7 7 7 7 8 7 7 7 7 7 7 6 6 6 6 6 5 4 4 5 5 5 6 7 7 9 10 11 11
5 8 11 10 8 6 7 9 7 8 9 9 9 8 6 6 6 7 7 7 6 6 7 7 7 7 6 5 5 5 6 6 4 4 5 5 6 6 6 7 7 9 10 11
7 7 7 5 2 1 2 7 4 4 5 6 7 6 6 8 8 8 8 6 6 6 6 7 7 7 7 5 5 6 6 6 5 5 5 5 6 6 5 6 6 7 9 9
13 10 9 6 1 2 3 5 1 1 3 4 5 6 8 9 9 8 8 8 7 7 6 6 6 6 7 6 6 6 6 6 5 4 5 5 5 4 5 6 7 6 8 8
8 9 10 3 3 4 5 2 2 3 4 5 7 9 9 9 9 9 8 8 8 7 7 7 6 6 7 7 7 6 5 5 5 5 4 4 5 5 5 7 8 7 7 7
9 9 5 3 4 4 4 5 5 5 5 6 7 8 9 9 10 9 9 8 7 8 8 7 6 6 7 7 7 6 6 6 5 5 5 5 6 6 6 7 7 7 7 7
8 9 9 7 7 6 6 6 5 5 6 6 8 9 9 9 10 10 9 8 7 8 8 8 7 6 6 7 7 7 6 6 5 5 5 5 5 6 6 7 8 7 7 7
12 11 10 9 7 6 6 6 6 7 6 7 8 9 9 10 10 10 9 8 8 8 9 9 8 7 7 6 6 7 7 6 5 5 4 4 4 5 6 7 8 9 9 8
10 7 6 6 6 6 6 6 7 7 8 7 7 9 10 10 10 9 10 9 9 9 9 9 9 8 7 6 6 7 6 5 5 4 4 4 4 2 3 5 8 9 10 10
10 8 8 8 6 5 6 7 7 7 8 9 9 9 10 10 10 9 10 10 10 10 10 10 9 9 7 6 6 7 7 6 5 4 4 4 5 5 3 2 5 8 10 11
7 6 7 6 6 6 7 8 8 8 8 9 9 9 10 10 10 11 11 11 10 10 10 10 10 10 8 7 7 7 7 7 6 4 4 4 5 5 5 6 5 4 6 11
5 5 6 7 6 6 6 6 8 9 9 9 8 9 10 11 12 12 11 11 11 11 11 10 10 10 8 7 7 7 7 5 4 4 4 4 5 5 5 6 6 5 5 6
5 6 6 7 7 7 7 7 8 9 9 9 9 10 10 11 12 12 11 10 11 12 11 11 11 10 8 7 8 7 6 7 5 4 4 4 5 5 6 6 6 6 7 7
4 5 5 7 7 7 7 8 8 9 9 10 10 11 11 11 12 12 12 11 11 12 11 11 11 10 8 7 7 6 5 5 6 5 5 5 5 6 6 7 7 6 6 8
3 4 5 6 6 7 8 8 9 9 10 11 11 11 11 12 12 13 12 12 12 12 11 10 10 9 8 7 6 5 4 4 4 4 4 4 5 6 7 7 8 8 7 8
3 3 4 5 5 6 7 8 9 10 10 10 11 11 11 12 12 13 12 12 12 12 11 9 12 10 8 7 6 4 4 5 4 4 4 6 6 6 7 8 8 8 8 8
3 4 4 5 5 6 7 8 9 9 9 10 11 11 12 12 12 12 12 11 10 9 10 11 10 8 7 6 6 4 5 5 5 4 4 5 6 7 7 8 8 8 9 8
4 4 5 6 6 7 7 8 8 10 10 10 10 11 12 12 12 11 11 11 10 9 10 12 8 6 5 5 6 5 5 5 5 5 5 6 6 6 7 8 8 8 9 9
4 5 5 6 7 8 8 7 8 10 10 10 11 11 11 12 12 11 10 9 9 12 9 7 6 7 6 6 4 5 5 5 5 5 5 6 6 7 7 8 8 9 9 9
5 5 6 6 7 8 9 8 8 9 9 10 10 11 11 11 9 9 10 8 7 11 8 6 7 8 8 5 4 4 5 5 5 5 5 6 6 7 7 8 8 9 9 10
5 5 6 6 7 7 9 9 8 8 9 9 9 10 10 9 8 7 8 11 12 11 6 6 8 7 7 3 3 4 4 4 4 5 5 5 6 6 7 8 9 9 10 11
5 5 6 6 6 6 7 8 8 8 8 7 8 9 7 6 7 8 7 7 9 9 5 5 6 5 2 1 3 3 4 4 5 6 6 6 6 7 7 8 9 10 10 10
5 5 5 6 6 6 6 6 7 7 7 8 8 7 7 6 7 7 6 6 7 7 5 3 2 1 0 2 2 3 4 5 5 5 6 6 7 7 8 9 10 9 10 10
5 5 4 5 5 5 5 6 6 7 7 8 9 8 8 7 6 6 6 5 5 5 4 2 2 1 1 2 3 3 4 4 5 6 6 6 6 7 8 9 9 9 9 10
Wind_Direction
257 268 272 268 266 254 244 244 254 267 273 281 292 298 304 308 309 314 315 314 314 316 315 317 317 317 315 306 287 275 260 253 243 232 233 221 215 207 193 188 190 189 189 185
264 263 266 268 264 258 253 252 255 265 271 278 286 296 303 306 311 314 314 312 313 315 315 313 311 311 310 309 303 281 257 256 250 236 229 227 219 209 192 187 188 185 189 189
265 273 280 266 256 253 250 247 252 259 269 290 299 302 303 305 304 304 306 309 310 311 312 310 306 305 302 300 302 291 270 258 242 235 229 228 221 208 194 189 187 188 188 189
269 276 251 250 249 250 257 257 254 265 281 291 295 294 291 299 307 306 312 313 312 315 316 311 306 305 300 300 294 288 279 266 248 231 231 229 215 214 197 189 190 190 188 184
248 254 267 269 264 252 258 268 270 277 291 301 311 306 292 319 328 318 308 305 303 306 310 310 307 308 301 290 288 284 281 273 256 237 228 221 213 213 200 189 191 190 183 182
240 249 257 262 315 13 298 270 276 280 297 315 329 313 302 329 326 320 318 316 315 313 310 310 309 312 304 289 287 282 279 275 260 248 230 224 216 209 198 190 188 187 184 183
239 250 260 265 250 123 224 256 323 329 305 302 287 273 296 315 317 313 310 311 313 312 310 305 308 311 303 295 288 286 285 280 263 252 237 225 218 202 191 183 178 182 181 182
224 240 252 225 173 208 237 289 312 303 296 295 294 301 310 314 314 313 311 311 311 308 303 302 303 304 300 296 293 290 287 282 270 254 237 217 204 195 189 179 175 177 176 176
214 231 258 228 232 245 268 281 283 286 292 296 296 299 305 308 308 305 304 304 305 301 300 298 293 290 290 293 297 295 289 277 269 258 233 215 203 191 189 183 177 178 175 175
257 259 267 263 257 256 258 268 282 290 290 290 289 294 299 301 301 302 300 301 301 298 297 297 294 284 281 291 296 294 285 278 270 256 238 215 207 195 190 186 180 178 175 174
253 263 277 270 273 285 287 288 292 292 285 282 285 289 292 294 295 296 297 299 298 293 291 291 293 290 287 289 291 289 282 277 274 255 227 212 210 208 203 198 189 182 183 178
252 250 251 267 279 291 290 286 287 289 288 285 283 286 288 288 289 292 295 295 293 290 289 289 288 286 286 285 282 279 277 272 269 252 223 205 193 201 215 195 179 180 181 178
256 267 268 275 282 293 293 296 292 284 284 288 288 286 286 286 287 289 291 291 290 289 289 289 287 284 281 276 273 272 269 266 260 244 222 203 188 179 173 124 146 160 165 167
265 275 275 279 285 295 294 296 295 289 286 285 287 289 289 289 290 289 289 289 290 289 286 285 284 283 283 280 270 266 263 258 247 231 220 212 193 181 179 170 164 160 158 157
276 278 276 286 284 286 291 295 292 289 289 290 291 291 292 292 291 290 292 293 291 288 284 283 281 281 281 277 270 262 257 250 235 221 214 213 194 180 177 171 164 157 145 146
294 289 284 284 283 285 290 290 289 290 294 296 297 295 294 291 289 291 291 291 289 286 284 282 279 279 277 269 266 262 253 236 227 219 209 205 191 180 176 169 165 163 159 155
276 277 283 289 291 291 290 288 288 291 293 293 294 295 295 293 291 290 290 289 284 281 281 279 279 279 273 267 263 255 239 224 219 219 211 201 190 181 172 167 169 166 163 164
262 269 281 288 291 295 297 298 297 294 292 294 297 295 294 292 291 291 291 291 287 283 279 276 277 277 269 266 261 244 227 218 214 211 208 199 189 179 169 167 166 162 158 152
306 299 300 300 300 297 295 295 295 294 294 295 293 292 290 289 289 290 291 289 285 285 285 281 281 277 267 260 253 232 219 214 213 208 200 195 193 175 168 166 163 161 156 149
318 317 313 309 306 300 296 297 296 295 295 295 294 293 292 292 292 291 288 281 276 276 282 284 282 272 262 248 242 224 213 208 205 200 194 188 176 168 166 163 157 155 151 148
316 315 313 309 304 301 297 297 297 297 298 296 293 291 292 293 293 292 289 287 285 281 282 284 280 268 256 246 234 215 210 205 199 194 190 178 166 164 161 157 153 151 148 145
308 308 307 305 304 303 302 301 298 297 298 297 294 293 294 295 295 291 280 278 286 290 290 282 276 266 259 254 224 209 206 199 193 188 177 167 161 160 159 156 152 148 146 145
307 308 306 304 302 302 302 302 299 298 298 299 298 297 294 292 292 291 293 290 290 291 292 282 273 271 267 250 217 202 191 184 180 171 162 159 159 158 156 153 150 147 146 144
308 309 308 307 306 305 306 308 306 302 298 296 296 296 295 296 294 287 286 294 298 297 293 283 281 276 269 234 191 177 172 168 164 156 153 154 153 150 150 149 147 144 143 140
309 307 307 310 311 307 305 310 311 308 305 304 302 302 300 295 295 301 303 304 304 305 302 293 290 287 266 189 165 161 160 163 157 148 148 149 148 146 145 145 144 142 141 139
309 306 303 301 300 303 308 311 312 312 316 317 317 317 314 311 307 308 311 313 314 310 313 310 310 298 132 133 136 140 140 144 145 145 143 142 143 142 140 138 137 138 137 136
311 310 309 311 313 313 313 313 313 315 317 317 317 318 319 318 319 323 325 327 329 330 335 343 358 39 92 111 120 124 127 129 132 135 136 138 138 137 137 135 135 135 136 137
Height
1428 1423 1423 1422 1419 1417 1419 1416 1415 1402 1395 1387 1385 1383 1381 1378 1376 1374 1372 1370 1368 1366 1365 1363 1361 1359 1358 1357 1357 1357 1357 1357 1357 1360 1362 1364 1368 1371 1375 1380 1385 1390 1395 1400
1424 1418 1417 1413 1407 1405 1404 1402 1399 1394 1387 1381 1380 1379 1377 1375 1373 1371 1369 1368 1366 1364 1363 1361 1359 1357 1356 1354 1354 1354 1354 1354 1355 1356 1358 1361 1364 1366 1370 1375 1380 1385 1390 1395
1420 1413 1412 1407 1395 1393 1392 1389 1390 1388 1382 1377 1376 1375 1374 1372 1370 1369 1367 1366 1364 1362 1360 1358 1356 1355 1353 1351 1350 1350 1351 1351 1352 1353 1355 1357 1359 1362 1366 1370 1375 1380 1385 1389
1419 1418 1415 1393 1383 1382 1381 1379 1379 1378 1376 1374 1373 1371 1370 1369 1367 1365 1364 1362 1361 1359 1357 1355 1353 1352 1349 1348 1347 1347 1347 1348 1349 1350 1352 1354 1356 1359 1362 1366 1370 1375 1379 1384
1416 1411 1399 1385 1379 1378 1379 1377 1375 1374 1372 1371 1370 1367 1366 1366 1364 1363 1362 1360 1358 1356 1354 1352 1350 1348 1346 1344 1344 1344 1343 1344 1345 1347 1348 1350 1352 1355 1358 1362 1366 1370 1374 1379
1410 1407 1398 1381 1375 1373 1377 1378 1372 1371 1371 1370 1369 1370 1367 1364 1362 1360 1359 1357 1354 1352 1350 1348 1346 1344 1342 1341 1340 1340 1340 1341 1342 1343 1344 1346 1348 1351 1354 1358 1362 1366 1370 1375
1405 1400 1388 1376 1373 1374 1383 1378 1370 1369 1369 1369 1369 1368 1365 1362 1360 1358 1356 1354 1351 1349 1347 1345 1343 1341 1339 1337 1336 1336 1337 1337 1338 1339 1340 1342 1344 1347 1350 1354 1358 1362 1366 1370
1398 1396 1386 1371 1371 1374 1372 1368 1368 1368 1367 1367 1365 1363 1361 1359 1357 1354 1352 1350 1348 1345 1343 1342 1340 1338 1335 1334 1333 1333 1333 1333 1333 1335 1336 1338 1340 1343 1346 1350 1354 1358 1362 1366
1382 1377 1368 1367 1367 1366 1366 1366 1365 1365 1364 1363 1362 1360 1358 1356 1353 1351 1349 1346 1344 1341 1339 1337 1336 1334 1332 1331 1330 1329 1328 1328 1329 1331 1332 1334 1336 1339 1342 1345 1349 1353 1357 1361
1372 1366 1364 1363 1363 1363 1363 1362 1361 1361 1360 1359 1358 1356 1354 1352 1349 1347 1345 1342 1339 1337 1334 1333 1332 1330 1328 1327 1326 1324 1324 1324 1325 1326 1327 1329 1332 1334 1337 1340 1344 1348 1352 1356
1366 1362 1361 1359 1359 1359 1358 1358 1357 1356 1356 1355 1353 1352 1350 1347 1345 1343 1340 1337 1335 1333 1330 1328 1326 1325 1324 1323 1322 1320 1320 1320 1320 1321 1323 1325 1327 1330 1333 1336 1339 1343 1347 1351
1360 1358 1358 1355 1355 1355 1354 1353 1353 1352 1351 1350 1349 1347 1345 1342 1340 1337 1335 1333 1330 1327 1325 1323 1321 1319 1319 1318 1317 1316 1315 1315 1316 1317 1319 1321 1323 1327 1330 1333 1337 1341 1345 1348
1353 1352 1352 1351 1351 1351 1350 1349 1348 1347 1346 1344 1343 1341 1339 1336 1334 1332 1329 1327 1324 1322 1319 1317 1315 1314 1313 1313 1313 1312 1311 1312 1313 1314 1316 1318 1320 1323 1325 1329 1333 1337 1340 1344
1348 1348 1347 1346 1346 1346 1345 1344 1343 1342 1340 1339 1337 1335 1333 1330 1327 1325 1322 1320 1318 1316 1313 1311 1309 1308 1307 1307 1307 1307 1307 1308 1309 1310 1312 1314 1316 1319 1322 1325 1329 1332 1337 1341
1344 1344 1343 1342 1342 1341 1340 1339 1338 1336 1334 1333 1331 1329 1326 1324 1321 1318 1316 1314 1311 1309 1306 1305 1303 1302 1302 1302 1302 1302 1302 1303 1304 1306 1308 1310 1313 1316 1318 1322 1325 1329 1333 1338
1339 1339 1338 1338 1337 1336 1335 1334 1333 1331 1329 1327 1325 1323 1320 1318 1314 1311 1309 1307 1304 1301 1299 1298 1296 1296 1296 1296 1296 1296 1297 1298 1300 1301 1303 1306 1309 1311 1315 1318 1321 1325 1329 1334
1336 1335 1334 1334 1333 1332 1331 1330 1328 1326 1323 1321 1319 1316 1313 1310 1307 1304 1301 1299 1297 1294 1292 1291 1289 1289 1289 1290 1290 1290 1291 1293 1295 1297 1299 1302 1304 1307 1311 1315 1318 1322 1326 1331
1332 1331 1331 1330 1329 1327 1326 1324 1323 1320 1318 1315 1313 1310 1307 1304 1300 1297 1294 1292 1289 1287 1285 1284 1283 1282 1283 1283 1284 1285 1286 1288 1290 1292 1295 1298 1301 1304 1308 1311 1315 1319 1323 1329
1328 1327 1327 1326 1325 1323 1321 1319 1317 1314 1312 1309 1306 1303 1300 1297 1294 1291 1288 1285 1282 1279 1277 1277 1277 1276 1276 1277 1278 1279 1281 1283 1285 1288 1291 1294 1297 1301 1304 1308 1312 1317 1321 1326
1324 1324 1323 1322 1321 1319 1317 1314 1312 1309 1306 1304 1300 1297 1293 1290 1287 1284 1281 1278 1276 1274 1272 1271 1270 1270 1270 1271 1273 1275 1277 1279 1281 1284 1287 1290 1293 1297 1301 1305 1309 1314 1319 1324
1322 1321 1319 1318 1316 1314 1312 1310 1307 1303 1300 1298 1295 1291 1287 1284 1281 1278 1275 1271 1269 1268 1266 1265 1265 1264 1265 1266 1268 1270 1272 1274 1277 1280 1283 1287 1290 1294 1298 1303 1307 1312 1317 1323
1319 1318 1316 1314 1312 1310 1307 1305 1302 1298 1295 1292 1289 1286 1282 1278 1275 1272 1269 1267 1264 1263 1261 1260 1259 1259 1261 1262 1264 1265 1268 1270 1273 1276 1280 1283 1287 1291 1296 1301 1305 1310 1316 1321
1316 1315 1313 1311 1308 1305 1303 1300 1297 1294 1290 1287 1284 1280 1277 1274 1271 1268 1263 1261 1260 1258 1257 1256 1255 1256 1257 1259 1260 1262 1264 1267 1270 1274 1277 1281 1286 1290 1295 1299 1304 1309 1314 1320
1313 1312 1310 1307 1305 1302 1298 1295 1293 1290 1286 1283 1280 1276 1273 1269 1266 1263 1261 1258 1256 1254 1253 1252 1252 1253 1254 1256 1257 1259 1262 1265 1268 1272 1276 1280 1284 1288 1293 1298 1302 1307 1313 1319
1310 1308 1306 1304 1301 1298 1295 1292 1289 1285 1282 1279 1276 1272 1269 1266 1263 1260 1257 1255 1253 1252 1250 1250 1250 1251 1252 1253 1255 1257 1260 1263 1266 1270 1274 1278 1282 1287 1291 1296 1301 1307 1312 1318
1308 1305 1303 1301 1299 1296 1293 1289 1286 1283 1279 1276 1272 1269 1266 1263 1260 1258 1255 1253 1251 1250 1249 1249 1249 1250 1251 1252 1254 1256 1259 1262 1266 1270 1274 1278 1282 1286 1291 1297 1302 1307 1313 1318
1305 1303 1300 1298 1296 1293 1290 1287 1284 1281 1277 1274 1270 1267 1264 1261 1259 1256 1254 1252 1251 1250 1249 1249 1249 1250 1251 1252 1254 1257 1259 1263 1266 1270 1274 1278 1282 1287 1292 1297 1302 1308 1313 1319